Weather History for VOTR - April, 2013

Change the Weather History Date:

Monday, April 1, 2013

  Actual Average Record
Temperature  
Mean Temperature 92 °F -  
Max Temperature 105 °F 94 °F 105 °F (2013)
Min Temperature 78 °F 80 °F 72 °F (2014)
Cooling Degree Days 26    
Growing Degree Days 42 (Base 50)    
Moisture  
Dew Point 71 °F    
Average Humidity 53    
Maximum Humidity 79    
Minimum Humidity 19    
Precipitation  
Precipitation 0.00 in - - ()
Sea Level Pressure  
Sea Level Pressure 29.79 in    
Wind  
Wind Speed 4 mph ()    
Max Wind Speed 13 mph    
Max Gust Speed -    
Visibility 3.9 miles    
Events      
Averages and records for this station are not official NWS values.
T = Trace of Precipitation, MM = Missing Value Source: Averaged Metar Reports

Daily Weather History Graph

Daily Weather History Graph

Search for Another Location

Airport or City:

Trip Planner

Search our weather history database for the weather conditions in past years. The results will help you decide how hot, cold, wet, or windy it might be!

Date:

Astronomy

Apr. 01, 2013 Rise Set
Actual Time 6:12 AM IST 6:25 PM IST
Civil Twilight 5:51 AM IST 6:47 PM IST
Nautical Twilight 5:26 AM IST 7:11 PM IST
Astronomical Twilight 5:01 AM IST 7:36 PM IST
Moon 11:20 PM IST (4/1) 10:16 AM IST (4/1)
Length of Visible Light 12h 55m
Length of Day
12h 13m
Waning Gibbous, 71% of the Moon is Illuminated
Apr 1
Waning Gibbous
Apr 3
Last Quarter
Apr 10
New
Apr 18
First Quarter
Apr 26
Full

Hourly Weather History & Observations

Time (IST) Temp. Heat Index Dew Point Humidity Pressure Visibility Wind Dir Wind Speed Gust Speed Precip Events Conditions
12:10 AM 84.2 °F 92.3 °F 75.2 °F 74% 29.80 in 3.7 mi SE 3.5 mph - N/A   Partly Cloudy
12:40 AM 84.2 °F 92.3 °F 75.2 °F 74% 29.80 in 3.7 mi East 3.5 mph - N/A   Partly Cloudy
1:40 AM 84.2 °F 92.3 °F 75.2 °F 74% 29.80 in 3.1 mi East 2.3 mph - N/A   Haze
2:10 AM 82.4 °F 89.5 °F 75.2 °F 79% 29.80 in 3.1 mi East 2.3 mph - N/A   Haze
2:30 AM 82 °F - 73 °F 69% 29.79 in 2 mi ESE 2.3 mph - -   Haze
2:40 AM 82.4 °F 88.2 °F 73.4 °F 74% 29.80 in 3.1 mi ESE 2.3 mph - N/A   Haze
3:10 AM 82.4 °F 88.2 °F 73.4 °F 74% 29.80 in 3.1 mi ESE 2.3 mph - N/A   Haze
3:40 AM 82.4 °F 88.2 °F 73.4 °F 74% 29.80 in 3.1 mi Calm Calm - N/A   Haze
4:10 AM 80.6 °F 85.4 °F 73.4 °F 79% 29.80 in 3.1 mi ESE 2.3 mph - N/A   Haze
4:40 AM 80.6 °F 85.4 °F 73.4 °F 79% 29.80 in 3.1 mi ESE 3.5 mph - N/A   Haze
5:10 AM 80.6 °F 85.4 °F 73.4 °F 79% 29.80 in 3.1 mi Calm Calm - N/A   Haze
5:30 AM 80 °F - 73 °F 74% 29.81 in 2 mi South 2.3 mph - -   Haze
5:40 AM 80.6 °F 85.4 °F 73.4 °F 79% 29.80 in 2.5 mi South 3.5 mph - N/A   Haze
6:40 AM 80.6 °F 85.4 °F 73.4 °F 79% 29.83 in 1.9 mi SSW 3.5 mph - N/A   Haze
7:10 AM 82.4 °F 88.2 °F 73.4 °F 74% 29.83 in 1.6 mi South 4.6 mph - N/A   Haze
7:40 AM 84.2 °F 90.9 °F 73.4 °F 70% 29.86 in 1.6 mi SW 4.6 mph - N/A   Haze
8:10 AM 86.0 °F 93.4 °F 73.4 °F 66% 29.86 in 1.6 mi SW 3.5 mph - N/A   Haze
8:30 AM 87 °F - 74 °F 59% 29.86 in 1 mi WSW 3.5 mph - -   Haze
9:10 AM 89.6 °F 98.2 °F 73.4 °F 59% 29.86 in 2.5 mi SW 3.5 mph - N/A   Haze
10:10 AM 93.2 °F 102.4 °F 73.4 °F 52% 29.86 in 3.7 mi WSW 5.8 mph - N/A   Partly Cloudy
10:40 AM 95.0 °F 103.2 °F 71.6 °F 47% 29.86 in 3.7 mi SSW 6.9 mph - N/A   Partly Cloudy
11:10 AM 96.8 °F 105.1 °F 71.6 °F 44% 29.86 in 3.7 mi SSW 5.8 mph - N/A   Partly Cloudy
11:30 AM 98 °F - 66 °F 26% 29.84 in 2 mi SSW 5.8 mph - -   Haze
11:40 AM 98.6 °F 104.1 °F 68.0 °F 37% 29.86 in 4.3 mi SW 4.6 mph - N/A   Partly Cloudy
12:10 PM 98.6 °F 104.1 °F 68.0 °F 37% 29.83 in 4.3 mi West 6.9 mph - N/A   Partly Cloudy
12:40 PM 100.4 °F 106.3 °F 68.0 °F 35% 29.80 in 5.0 mi SSW 5.8 mph - N/A   Partly Cloudy
1:10 PM 102.2 °F 106.9 °F 66.2 °F 31% 29.80 in 6.2 mi Variable 3.5 mph - N/A   Partly Cloudy
1:40 PM 104.0 °F 110.5 °F 68.0 °F 31% 29.77 in 6.2 mi SSE 9.2 mph - N/A   Partly Cloudy
2:10 PM 104.0 °F 110.5 °F 68.0 °F 31% 29.74 in 6.2 mi NE 4.6 mph - N/A   Partly Cloudy
2:30 PM 102 °F - 63 °F 19% 29.74 in 6 mi SE 4.6 mph - -   Scattered Clouds
2:40 PM 102.2 °F 106.9 °F 66.2 °F 31% 29.74 in 6.2 mi SSE 4.6 mph - N/A   Partly Cloudy
3:10 PM 102.2 °F 106.9 °F 66.2 °F 31% 29.71 in 6.2 mi NNE 3.5 mph - N/A   Partly Cloudy
3:40 PM 102.2 °F 106.9 °F 66.2 °F 31% 29.71 in 6.2 mi South 6.9 mph - N/A   Partly Cloudy
4:10 PM 100.4 °F 104.9 °F 66.2 °F 33% 29.71 in 6.2 mi SSW 3.5 mph - N/A   Partly Cloudy
4:40 PM 100.4 °F 104.9 °F 66.2 °F 33% 29.71 in 6.2 mi SSE 4.6 mph - N/A   Partly Cloudy
5:10 PM 100.4 °F 104.9 °F 66.2 °F 33% 29.74 in 6.2 mi SSE 8.1 mph - N/A   Partly Cloudy
5:30 PM 100 °F - 69 °F 27% 29.70 in 6 mi SE 9.2 mph - -   Scattered Clouds
5:40 PM 100.4 °F 107.8 °F 69.8 °F 37% 29.74 in 6.2 mi South 11.5 mph - N/A   Partly Cloudy
6:10 PM 100.4 °F 107.8 °F 69.8 °F 37% 29.74 in 5.0 mi SE 12.7 mph - N/A   Partly Cloudy
6:40 PM 100.4 °F 109.3 °F 71.6 °F 39% 29.74 in 5.0 mi SSE 8.1 mph - N/A   Partly Cloudy
7:10 PM 98.6 °F 107.7 °F 71.6 °F 42% 29.74 in 5.0 mi SE 8.1 mph - N/A   Partly Cloudy
7:40 PM 95.0 °F 104.5 °F 73.4 °F 49% 29.77 in 3.7 mi South 12.7 mph - N/A   Partly Cloudy
8:10 PM 91.4 °F 100.1 °F 73.4 °F 55% 29.77 in 3.7 mi SSE 9.2 mph - N/A   Partly Cloudy
8:30 PM 89 °F - 71 °F 47% 29.78 in 2 mi SSE 9.2 mph - -   Haze
8:40 PM 89.6 °F 98.2 °F 73.4 °F 59% 29.80 in 3.7 mi South 10.4 mph - N/A   Unknown
9:10 PM 87.8 °F 95.6 °F 73.4 °F 62% 29.80 in 3.7 mi South 9.2 mph - N/A   Unknown
9:40 PM 87.8 °F 95.6 °F 73.4 °F 62% 29.83 in 3.7 mi South 9.2 mph - N/A   Unknown
10:10 PM 87.8 °F 93.8 °F 71.6 °F 58% 29.83 in 3.7 mi South 6.9 mph - N/A   Unknown
10:40 PM 87.8 °F 93.8 °F 71.6 °F 58% 29.83 in 3.7 mi South 5.8 mph - N/A   Unknown
11:10 PM 86.0 °F 91.8 °F 71.6 °F 62% 29.83 in 3.7 mi SSW 4.6 mph - N/A   Unknown
11:30 PM 86 °F - 70 °F 50% 29.82 in 2 mi South 5.8 mph - -   Haze
11:40 PM 86.0 °F 91.8 °F 71.6 °F 62% 29.83 in 3.7 mi South 3.5 mph - N/A   Unknown